Location: Boullarre
(49.1305°N, 3.0047°E)
Time: 06:58:12
(UTC+00:00)

Resurs 01 Rocket - Pass Details

Date: 03 February 2023
Orbit: 632 x 643 km, 97.9° (Epoch: 30 March)

Event Time Altitude Azimuth Distance (km) Brightness Sun altitude
Exits shadow 18:59:54 10° 13° (NNE) 2,030 4.1 -21.8°
Drops below altitude 10° 18:59:58 10° 12° (NNE) 2,051 4.1 -21.8°
Sets 19:02:35 0° 358° (N) 2,967 5.1 -22.2°
